Overview Statistics Trail Chart Weather Telemetry Raw packets
 

This is the latest recevied weather packets stored in our database for station/object K5GHS-1. If no packets are shown the sender has not sent any weather packets the latest 10 day(s).

<< 104 105 106 107 108 109 110 >>
Time Temp. Humidity Pressure Rain* Wind** Luminosity Snow
1787925096 28.89° C 68% 1016.6 hPa 0 mm - 142 W/m² -
1787924795 28.89° C 69% 1016.9 hPa 0 mm - 133 W/m² -
1787924494 28.33° C 70% 1016.6 hPa 0 mm - 125 W/m² -
1787924185 27.78° C 72% 1016.8 hPa 0 mm - 121 W/m² -
1787923880 26.67° C 75% 1016.7 hPa 0 mm - 107 W/m² -
1787923574 26.67° C 76% 1016.7 hPa 0 mm - 94 W/m² -
1787923269 26.11° C 77% 1016.8 hPa 0 mm - 41 W/m² -
1787922959 25.56° C 78% 1016.6 hPa 0 mm - 37 W/m² -
1787922658 25° C 79% 1016.6 hPa 0 mm - 35 W/m² -
1787922357 25° C 81% 1016.6 hPa 0 mm - 34 W/m² -
1787922055 24.44° C 82% 1016.5 hPa 0 mm - 32 W/m² -
1787921750 24.44° C 82% 1016.4 hPa 0 mm - 29 W/m² -
1787921449 23.89° C 83% 1016.6 hPa 0 mm - 25 W/m² -
1787921139 23.89° C 83% 1016.4 hPa 0 mm - 22 W/m² -
1787920839 23.89° C 83% 1016.4 hPa 0 mm - 19 W/m² -
1787920528 23.89° C 83% 1016.2 hPa 0 mm - 17 W/m² -
1787920228 23.89° C 83% 1016.2 hPa 0 mm - 14 W/m² -
1787919921 23.89° C 83% 1016.1 hPa 0 mm - 11 W/m² -
1787919620 23.89° C 83% 1016.2 hPa 0 mm - 9 W/m² -
1787919316 23.89° C 83% 1016.2 hPa 0 mm - 6 W/m² -
1787919011 23.89° C 83% 1016.1 hPa 0 mm - 3 W/m² -
1787918706 23.89° C 83% 1015.9 hPa 0 mm - 1 W/m² -
1787918413 23.89° C 82% 1016 hPa 0 mm - 1 W/m² -
1787918098 23.89° C 82% 1016 hPa 0 mm - 0 W/m² -
1787917792 23.89° C 82% 1015.8 hPa 0 mm - 0 W/m² -

* Rain latest hour (hover to see other rain measurements)
** Current wind speed in m/s (hover to see current wind gust speed)